Location: Apalco
(33.3585°N, 93.4602°W)
Time: 03:51:33
(UTC+00:00)

Envisat - Pass Details

Date: 02 October 2021
Orbit: 764 x 766 km, 98.2° (Epoch: 26 October)

Event Time Altitude Azimuth Distance (km) Brightness Sun altitude
Rises 11:20:02 0° 11° (NNE) 3,234 6.4 -11.1°
Reaches altitude 10° 11:22:21 10° 12° (NNE) 2,304 5.7 -10.6°
Maximum altitude 11:27:26 88° 283° (WNW) 769 3.0 -9.5°
Drops below altitude 10° 11:32:29 10° 195° (SSW) 2,290 5.3 -8.5°
Sets 11:34:47 0° 194° (SSW) 3,212 6.1 -8.0°
